Lancaster, CA

3:25 PM PDT on March 22, 2017 (GMT -0700)
Gen Fox

Weather History for KWJF - August, 2014

Change the Weather History Date:

Thursday, August 14, 2014

  Actual Average Record
Temperature  
Mean Temperature 78 °F 81 °F  
Max Temperature 93 °F 98 °F 107 °F (2002)
Min Temperature 63 °F 65 °F 54 °F (1968)
Degree Days  
Heating Degree Days 0    
Month to date heating degree days 0  
Since 1 June heating degree days 0  
Since 1 July heating degree days 0  
Cooling Degree Days 13    
Month to date cooling degree days 224  
Year to date cooling degree days 1411  
Since 1 June cooling degree days 1211  
Growing Degree Days 28 (Base 50)    
Moisture  
Dew Point 42 °F    
Average Humidity 36    
Maximum Humidity 60    
Minimum Humidity 12    
Precipitation  
Precipitation 0.00 in 0.00 in 0.00 in (2017)
Month to date precipitation 0.03 0.04  
Year to date precipitation 2.35 5.04  
Since 1 July precipitation 0.03  
Snow  
Snow 0.00 in - 0.00 in ()
Month to date snowfall 0.0  
Since 1 June snowfall 0.0  
Since 1 July snowfall 0.0  
Snow Depth 0.00 in    
Sea Level Pressure  
Sea Level Pressure 29.94 in    
Wind  
Wind Speed 11 mph (WSW)    
Max Wind Speed 24 mph    
Max Gust Speed 31 mph    
Visibility 10 miles    
Events      
T = Trace of Precipitation, MM = Missing Value Source: NWS Daily Summary

Daily Weather History Graph

Daily Weather History Graph

Search for Another Location

Airport or City:

Trip Planner

Search our weather history database for the weather conditions in past years. The results will help you decide how hot, cold, wet, or windy it might be!

Date:

Astronomy

Aug. 14, 2014 Rise Set
Actual Time 6:12 AM PDT 7:41 PM PDT
Civil Twilight 5:45 AM PDT 8:08 PM PDT
Nautical Twilight 5:13 AM PDT 8:40 PM PDT
Astronomical Twilight 4:40 AM PDT 9:14 PM PDT
Moon 10:22 PM PDT (8/14) 10:41 AM PDT (8/14)
Length of Visible Light 14h 22m
Length of Day
13h 29m
Waning Gibbous, 78% of the Moon is Illuminated
Aug 14
Waning Gibbous
Aug 17
Last Quarter
Aug 25
New
Sep 2
First Quarter
Sep 8
Full

Hourly Weather History & Observations

Time (PDT) Temp. Dew Point Humidity Pressure Visibility Wind Dir Wind Speed Gust Speed Precip Events Conditions
12:56 AM 72.0 °F 50.0 °F 46% 29.93 in 10.0 mi WSW 12.7 mph - N/A   Clear
1:56 AM 70.0 °F 50.0 °F 49% 29.93 in 10.0 mi West 10.4 mph - N/A   Clear
2:56 AM 68.0 °F 50.0 °F 52% 29.93 in 10.0 mi West 11.5 mph - N/A   Clear
3:56 AM 64.9 °F 50.0 °F 58% 29.93 in 10.0 mi West 9.2 mph - N/A   Clear
4:56 AM 66.0 °F 50.0 °F 56% 29.94 in 10.0 mi NW 6.9 mph - N/A   Clear
5:56 AM 63.0 °F 48.9 °F 60% 29.94 in 10.0 mi West 5.8 mph - N/A   Clear
6:56 AM 66.0 °F 52.0 °F 60% 29.96 in 10.0 mi West 6.9 mph - N/A   Clear
7:56 AM 73.0 °F 53.1 °F 49% 29.97 in 10.0 mi WSW 9.2 mph - N/A   Clear
8:56 AM 75.9 °F 51.1 °F 42% 29.97 in 10.0 mi South 3.5 mph - N/A   Clear
9:56 AM 80.1 °F 50.0 °F 35% 29.97 in 10.0 mi Calm Calm - N/A   Clear
10:56 AM 84.0 °F 46.0 °F 26% 29.95 in 10.0 mi Calm Calm - N/A   Clear
11:56 AM 89.1 °F 42.1 °F 19% 29.93 in 10.0 mi Variable 5.8 mph - N/A   Clear
12:56 PM 93.0 °F 34.0 °F 12% 29.92 in 10.0 mi WSW 16.1 mph 29.9 mph N/A   Clear
1:56 PM 91.9 °F 32.0 °F 12% 29.92 in 10.0 mi WSW 19.6 mph 31.1 mph N/A   Clear
2:56 PM 91.9 °F 35.1 °F 13% 29.92 in 10.0 mi WSW 19.6 mph 26.5 mph N/A   Clear
3:56 PM 91.9 °F 36.0 °F 14% 29.91 in 10.0 mi SW 13.8 mph 24.2 mph N/A   Clear
4:56 PM 91.0 °F 32.0 °F 12% 29.90 in 10.0 mi SW 19.6 mph 28.8 mph N/A   Clear
5:56 PM 88.0 °F 34.0 °F 15% 29.91 in 10.0 mi SW 17.3 mph - N/A   Clear
6:56 PM 84.0 °F 37.9 °F 19% 29.91 in 10.0 mi SW 16.1 mph 25.3 mph N/A   Clear
7:56 PM 80.1 °F 37.9 °F 22% 29.92 in 10.0 mi WSW 6.9 mph - N/A   Clear
8:56 PM 75.0 °F 36.0 °F 24% 29.95 in 10.0 mi WNW 6.9 mph - N/A   Clear
9:56 PM 75.0 °F 30.0 °F 19% 29.95 in 10.0 mi West 11.5 mph - N/A   Clear
10:56 PM 75.0 °F 32.0 °F 21% 29.95 in 10.0 mi West 15.0 mph - N/A   Clear
11:56 PM 71.1 °F 33.1 °F 25% 29.96 in 10.0 mi NNW 9.2 mph - N/A   Clear